TimeEST,TemperatureF,Dew PointF,Humidity,Sea Level PressureIn,VisibilityMPH,Wind Direction,Wind SpeedMPH,Gust SpeedMPH,PrecipitationIn,Events,Conditions,WindDirDegrees,DateUTC
12:56 AM,57.9,55.9,93,30.26,10.0,North,4.6,-,N/A,,Mostly Cloudy,360,2012-12-01 05:56:00
1:56 AM,57.9,55.9,93,30.26,9.0,Calm,Calm,-,N/A,,Mostly Cloudy,0,2012-12-01 06:56:00
2:56 AM,55.9,55.0,97,30.25,6.0,Calm,Calm,-,N/A,,Mostly Cloudy,0,2012-12-01 07:56:00
3:56 AM,55.9,55.0,97,30.25,9.0,NNW,3.5,-,N/A,,Mostly Cloudy,340,2012-12-01 08:56:00
4:56 AM,57.0,55.0,93,30.25,9.0,Calm,Calm,-,N/A,,Mostly Cloudy,0,2012-12-01 09:56:00
5:56 AM,57.0,55.9,96,30.26,10.0,NE,3.5,-,N/A,,Mostly Cloudy,50,2012-12-01 10:56:00
6:56 AM,57.9,55.9,93,30.27,10.0,NE,4.6,-,N/A,,Mostly Cloudy,50,2012-12-01 11:56:00
7:56 AM,63.0,57.9,84,30.29,10.0,NE,9.2,-,N/A,,Mostly Cloudy,50,2012-12-01 12:56:00
8:56 AM,64.0,59.0,84,30.31,10.0,ENE,9.2,-,N/A,,Mostly Cloudy,70,2012-12-01 13:56:00
9:24 AM,64.4,60.8,88,30.33,2.0,East,11.5,-,0.00,Rain,Light Rain,80,2012-12-01 14:24:00
9:52 AM,62.6,60.8,94,30.33,9.0,ESE,4.6,-,0.01,,Overcast,110,2012-12-01 14:52:00
9:56 AM,63.0,61.0,93,30.33,10.0,East,6.9,-,0.01,,Mostly Cloudy,90,2012-12-01 14:56:00
10:56 AM,64.9,61.0,87,30.33,10.0,West,5.8,-,N/A,,Overcast,260,2012-12-01 15:56:00
11:56 AM,69.1,59.0,70,30.31,10.0,NNE,4.6,-,N/A,,Mostly Cloudy,20,2012-12-01 16:56:00
12:56 PM,71.1,57.0,61,30.28,10.0,NE,3.5,-,N/A,,Mostly Cloudy,40,2012-12-01 17:56:00
1:56 PM,69.1,60.1,73,30.27,10.0,Calm,Calm,-,N/A,,Overcast,0,2012-12-01 18:56:00
2:56 PM,70.0,57.0,63,30.27,10.0,NE,6.9,-,N/A,,Mostly Cloudy,40,2012-12-01 19:56:00
3:56 PM,68.0,60.1,76,30.27,10.0,Calm,Calm,-,0.00,,Overcast,0,2012-12-01 20:56:00
4:56 PM,66.9,60.1,79,30.27,10.0,Calm,Calm,-,N/A,,Mostly Cloudy,0,2012-12-01 21:56:00
5:56 PM,64.0,62.1,93,30.28,10.0,Calm,Calm,-,0.00,,Overcast,0,2012-12-01 22:56:00
6:56 PM,64.0,61.0,90,30.29,10.0,NNE,3.5,-,N/A,,Overcast,20,2012-12-01 23:56:00
7:56 PM,62.1,60.1,93,30.29,10.0,North,3.5,-,N/A,,Scattered Clouds,360,2012-12-02 00:56:00
8:56 PM,60.1,59.0,96,30.29,9.0,Calm,Calm,-,N/A,,Scattered Clouds,0,2012-12-02 01:56:00
9:56 PM,60.1,59.0,96,30.29,10.0,NE,3.5,-,N/A,,Mostly Cloudy,40,2012-12-02 02:56:00
10:56 PM,57.9,57.0,97,30.29,10.0,North,4.6,-,N/A,,Scattered Clouds,10,2012-12-02 03:56:00
11:56 PM,55.9,55.9,100,30.29,7.0,Calm,Calm,-,N/A,Fog,Shallow Fog,0,2012-12-02 04:56:00